Showing default

KUIPER-00203, 67773

Orbit data source: Space-Track

KUIPER-00203, 67773 is a payload satellite owned by Kuiper Systems (US) in LEO that was launched on Thu, 12 Feb 2026 UTC via an ARIANE 64 launch vehicle from the French Guiana (FRGUI). Payload-class satellites include a variety of spacecraft equipped with specific instruments for various scientific and technological missions. These include communications satellites like Starlink; space stations such as the ISS; scientific satellites like the Hubble; Earth observation satellites from companies like Planet Labs, Umbra, and HawkEye 360; GPS; miniature CubeSats for education and research; and military/defense satellites.

Loading next visibility...
Identifier
67773, 2026-030K
Orbit
LEO
Country
Flag of USUS
Related business
Manufacturer
Kuiper Systems
Mission
Operational Commercial Communications
Bus & Motor
KUIPER, Unknown motor
Mass
~490 kg wet, ~490 kg dry
Launch date (UTC)
2026-02-12 (4 months ago)
Launch vehicle
ARIANE 64
Launch site
French Guiana (FRGUI)
Object type
Payload
Rocket body
Debris
Shape & HBR
Box + 2 Pan, 3.4 m
Radar Cross Section
2.326 m², Large (>1 m²)

Expand to show TLE details & history
Last TLE update: 1 day ago

TLE from 1 day ago
0 KUIPER-00203
1 67773U 26030K   26170.85287280  .00002429  00000-0  34743-3 0  9998
2 67773  51.9055 126.3874 0000822  72.0616 288.0436 14.79935923 20232
Epoch: 2026-06-19T20:28Z
TLE epoch observation values (Epoch: 2026-06-19T20:28:08.209Z)
Latitude
-0.00004°
Longitude
-88.72273°
Altitude
630.095 km
Speed
7.545 km/s
True Right ascension
08h 25m 32s
True Declination
0° 00' 00"
Sunlit
Object was in daylight at epoch
Visualization orbit readout
Latitude
Unknown
Longitude
Unknown
Altitude
Unknown
Speed
Unknown
Apparent Right ascension
Unknown
Apparent Declination
Unknown
Sunlit
N/A
Visualization observer readout
Local Sidereal Time
10:19:44
Azimuth
Unknown
Elevation
Unknown
Doppler factor
Unknown
Orbital elements
Apogee altitude
630.553 km
Perigee altitude
629.401 km
Semi-major axis
7,008.114 km
Eccentricity
0.00008
Inclination
51.9055°
RAAN
126.3874°
Arg. of periapsis
72.0616°
True anomaly
288.03464°
Mean anomaly
288.0436°
Eccentric anomaly
288.03912°
Mean motion
3.69949 °/min
Orbital period
97.31 mins
BSTAR
0.00034743
Loading maneuver chart data...
Computing Atmospheric mass density...
Loading historical data...
Loading historical data...
Loading historical data...
Loading historical data...
Loading historical data...
Loading historical data...
Loading historical data...

Documentation

Showing up to 5 results
|